Flag for U.S.A. Weather past 2 weeks in Stamford, Connecticut, U.S.A.

58 °F

Passing clouds.

Feels Like: 56 °F
Forecast: 43 / 61 °F
Wind: 10 mph from Northwest

Location: Westchester County Airport

Current Time: Oct 10, 2015 at 12:48:46 PM

Latest Report: Oct 10, 2015 at 11:56 AM

Visibility: 10 mi

Pressure: 30.11 "Hg

Humidity: 47%

Dew point: 38 °F

Location of StamfordLocation

Historic Weather in Stamford — Graph


Stamford temperature yesterday

Maximum temperature yesterday: 72 °F (at 2:56 PM)
Minimum temperature yesterday: 54 °F (at 12:56 AM)
Average temperature yesterday: 64 °F

Past Weeks' High & Low Weather Summary

High80 °F (Sep 29, 12:56 PM)100% (Sep 29, 6:56 AM)30.48 "Hg (Sep 29, 6:56 AM)
Low46 °F (Oct 2, 8:56 PM)44% (Sep 25, 12:56 PM)29.65 "Hg (Sep 30, 6:56 AM)
Average59 °F77%30.14 "Hg
* Reported Sep 25 11:56 AM — Oct 10 11:56 AM, Stamford, Weather by CustomWeather, © 2015

Note: Actual official high and low records may vary slightly from our data, if they occured in-between our weather recording intervals... More about our weather records


Stamford weather history for previous 24 hours

Time TempWeatherWind HumidityBarometerVisibility
11:56 AM
Sat, Oct 10
58 °FPassing clouds.10 mph47%30.11 "Hg10 mi
10:56 AM56 °FPassing clouds.13 mph53%30.12 "Hg10 mi
9:56 AM54 °FPassing clouds.13 mph59%30.11 "Hg10 mi
8:56 AM52 °FSunny.7 mph61%30.11 "Hg10 mi
7:56 AM48 °FClear.No wind66%30.10 "Hg10 mi
6:56 AM47 °FPassing clouds.7 mph66%30.07 "Hg10 mi
5:56 AM48 °FClear.16 mph66%30.04 "Hg10 mi
4:56 AM50 °FClear.10 mph71%30.01 "Hg10 mi
3:56 AM52 °FPassing clouds.16 mph69%29.96 "Hg10 mi
2:56 AM55 °FPassing clouds.13 mph72%29.94 "Hg10 mi
1:56 AM57 °FPassing clouds.18 mph72%29.92 "Hg10 mi
12:56 AM58 °FClear.16 mph81%29.88 "Hg10 mi
11:56 PM
Fri, Oct 9
61 °FClear.13 mph75%29.86 "Hg10 mi
10:56 PM62 °FClear.17 mph83%29.84 "Hg10 mi
9:56 PM63 °FPassing clouds.9 mph87%29.83 "Hg10 mi
8:56 PM64 °FOvercast.7 mph94%29.81 "Hg7 mi
7:56 PM65 °FPassing clouds.8 mph94%29.79 "Hg7 mi
6:56 PM66 °FBroken clouds.5 mph90%29.78 "Hg8 mi
5:56 PM68 °FLight rain. Broken clouds.6 mph87%29.75 "Hg8 mi
4:56 PM72 °FBroken clouds.3 mph71%29.75 "Hg10 mi
3:56 PM72 °FBroken clouds.7 mph73%29.76 "Hg10 mi
2:56 PM72 °FPartly sunny.6 mph73%29.78 "Hg10 mi
1:56 PM70 °FScattered clouds.7 mph76%29.81 "Hg9 mi
12:56 PM69 °FLight rain. Partly sunny.3 mph76%29.85 "Hg6 mi
Weather by CustomWeather, © 2015

See weather overviewHow to use our weather pages